sat.trackr.live / text

‹ back to catalog

COSMO-SKYMED 1

NORAD 31598 · 2007-023A

PAYLOAD ACTIVE UNKNOWN

§ Identity

Operator
Country
IT
Launch date
2007-06-08
Launch site
AFWTR
Launch vehicle
Mass (kg)
RCS (m²)
4.68

Purposes: earth_obs

External: N2YO · Heavens-Above · Gunter

§ Orbital elements

Epoch: 2026-05-25T03:24:43.343712Z

Period
96.19 min
Inclination
97.8861°
Eccentricity
0.0001707
Mean motion
14.96971685 rev/d
Perigee alt
575.1 km
Apogee alt
577.4 km
Semi-major
6,954.4 km
B*
2.2929e-4
RAAN
336.8060°
Arg perigee
96.7856°
Mean anomaly
263.3560°
Rev number
2,634

§ Raw data

COSMO-SKYMED 11 31598U 07023A   26145.14216833  .00002576  00000+0  22929-3 0  99902 31598  97.8861 336.8060 0001707  96.7856 263.3560 14.96971685 26345

JSON: /api/v1/satellites/31598 · /tle

For live sub-satellite position, see the globe view (requires WebGL).

§ Visibility from observer

Set your observer location to see the next 7 days of passes ≥ 10°. The values pass through the URL so the page stays shareable.

No JS? Fill the form by hand. The geolocation button needs JavaScript.

§ Radio — SatNOGS DB

ModeDescriptionDownlinkUplink
BPSK S-band telemetry 2.230 GHz

1 transmitter · refreshed weekly from db.satnogs.org